,,PressureMeas_1m,,PRMeasQMR101_1,,RHStat155_1m_1,,SRMeasQMS101R_1m,,TAStat155_1m_1,,GenWind_1,,GenWind_1,
2019-06-26, 00:00:06,VALID,919.256,VALID,0.0,VALID,95.184,VALID,-0.007,VALID,20.822,INVALID,360.0,VALID,0.0,
2019-06-26, 00:01:06,VALID,919.245,VALID,0.0,VALID,94.207,VALID,-0.008,VALID,20.864,INVALID,360.0,VALID,0.0,
2019-06-26, 00:02:06,VALID,919.27,VALID,0.0,VALID,94.889,VALID,-0.001,VALID,21.164,INVALID,360.0,VALID,0.0,
2019-06-26, 00:03:06,VALID,919.271,VALID,0.0,VALID,94.421,VALID,-0.023,VALID,21.224,INVALID,360.0,VALID,0.0,
2019-06-26, 00:04:06,VALID,919.268,VALID,0.0,VALID,94.693,VALID,-0.016,VALID,21.265,INVALID,360.0,VALID,0.0,
2019-06-26, 00:05:06,VALID,919.282,VALID,0.0,VALID,94.39,VALID,-0.004,VALID,21.246,INVALID,360.0,VALID,0.0,
2019-06-26, 00:06:06,VALID,919.278,VALID,0.0,VALID,94.8,VALID,-0.003,VALID,21.226,INVALID,360.0,VALID,0.0,
2019-06-26, 00:07:06,VALID,919.292,VALID,0.0,VALID,95.503,VALID,-0.009,VALID,21.181,INVALID,360.0,VALID,0.0,
2019-06-26, 00:08:06,VALID,919.3,VALID,0.0,VALID,95.528,VALID,-0.011,VALID,21.114,INVALID,360.0,VALID,0.0,
2019-06-26, 00:09:06,VALID,919.277,VALID,0.0,VALID,96.14,VALID,-0.004,VALID,21.092,INVALID,360.0,VALID,0.0,
2019-06-26, 00:10:06,VALID,919.26,VALID,0.0,VALID,96.454,VALID,-0.012,VALID,21.076,INVALID,360.0,VALID,0.0,
2019-06-26, 00:11:06,VALID,919.233,VALID,0.0,VALID,96.603,VALID,-0.013,VALID,21.069,INVALID,360.0,VALID,0.0,
2019-06-26, 00:12:06,VALID,919.216,VALID,0.0,VALID,96.599,VALID,-0.017,VALID,21.093,INVALID,360.0,VALID,0.0,
2019-06-26, 00:13:06,VALID,919.182,VALID,0.0,VALID,96.431,VALID,-0.011,VALID,21.108,INVALID,360.0,VALID,0.0,
2019-06-26, 00:14:06,VALID,919.194,VALID,0.0,VALID,96.184,VALID,-0.022,VALID,21.115,INVALID,360.0,VALID,0.0,
2019-06-26, 00:15:06,VALID,919.205,VALID,0.0,VALID,95.874,VALID,-0.012,VALID,21.137,INVALID,360.0,VALID,0.0,
2019-06-26, 00:16:06,VALID,919.225,VALID,0.0,VALID,94.985,VALID,-0.016,VALID,21.067,INVALID,360.0,VALID,0.0,
2019-06-26, 00:17:06,VALID,919.259,VALID,0.0,VALID,94.121,VALID,-0.008,VALID,20.945,INVALID,360.0,VALID,0.0,
2019-06-26, 00:18:06,VALID,919.281,VALID,0.0,VALID,95.142,VALID,-0.013,VALID,20.928,INVALID,360.0,VALID,0.0,
2019-06-26, 00:19:06,VALID,919.295,VALID,0.0,VALID,95.509,VALID,-0.005,VALID,20.945,INVALID,360.0,VALID,0.0,
2019-06-26, 00:20:06,VALID,919.271,VALID,0.0,VALID,95.734,VALID,0.004,VALID,20.974,INVALID,360.0,VALID,0.0,
2019-06-26, 00:21:06,VALID,919.277,VALID,0.0,VALID,95.584,VALID,-0.003,VALID,21.001,INVALID,360.0,VALID,0.0,
2019-06-26, 00:22:06,VALID,919.253,VALID,0.0,VALID,95.45,VALID,-0.002,VALID,21.004,INVALID,360.0,VALID,0.0,
2019-06-26, 00:23:06,VALID,919.249,VALID,0.0,VALID,95.395,VALID,0.004,VALID,21.006,INVALID,360.0,VALID,0.0,
2019-06-26, 00:24:06,VALID,919.244,VALID,0.0,VALID,95.065,VALID,0.005,VALID,21.003,INVALID,360.0,VALID,0.0,
2019-06-26, 00:25:06,VALID,919.233,VALID,0.0,VALID,94.635,VALID,0.006,VALID,21.033,INVALID,360.0,VALID,0.0,
2019-06-26, 00:26:06,VALID,919.233,VALID,0.0,VALID,94.385,VALID,0.014,VALID,21.053,INVALID,360.0,VALID,0.0,
2019-06-26, 00:27:06,VALID,919.251,VALID,0.0,VALID,94.048,VALID,0.005,VALID,21.074,INVALID,360.0,VALID,0.0,
2019-06-26, 00:28:06,VALID,919.241,VALID,0.0,VALID,93.789,VALID,0.014,VALID,21.11,INVALID,360.0,VALID,0.0,
2019-06-26, 00:29:06,VALID,919.221,VALID,0.0,VALID,93.515,VALID,0.008,VALID,21.131,INVALID,360.0,VALID,0.0,
2019-06-26, 00:30:06,VALID,919.183,VALID,0.0,VALID,93.397,VALID,0.004,VALID,21.111,INVALID,360.0,VALID,0.0,
2019-06-26, 00:31:06,VALID,919.154,VALID,0.0,VALID,93.619,VALID,0.001,VALID,21.12,INVALID,360.0,VALID,0.0,
2019-06-26, 00:32:06,VALID,919.109,VALID,0.0,VALID,93.424,VALID,0.004,VALID,21.126,INVALID,360.0,VALID,0.0,
2019-06-26, 00:33:06,VALID,919.084,VALID,0.0,VALID,93.506,VALID,0.006,VALID,21.128,INVALID,360.0,VALID,0.0,
2019-06-26, 00:34:06,VALID,919.057,VALID,0.0,VALID,93.565,VALID,-0.01,VALID,21.116,INVALID,360.0,VALID,0.0,
2019-06-26, 00:35:06,VALID,919.05,VALID,0.0,VALID,93.655,VALID,-0.012,VALID,21.11,INVALID,360.0,VALID,0.0,
2019-06-26, 00:36:06,VALID,919.04,VALID,0.0,VALID,93.466,VALID,-0.006,VALID,21.077,INVALID,360.0,VALID,0.0,
2019-06-26, 00:37:06,VALID,919.051,VALID,0.0,VALID,93.675,VALID,0.004,VALID,20.998,INVALID,360.0,VALID,0.0,
2019-06-26, 00:38:06,VALID,919.074,VALID,0.0,VALID,93.857,VALID,0.006,VALID,20.893,INVALID,360.0,VALID,0.0,
2019-06-26, 00:39:06,VALID,919.088,VALID,0.0,VALID,94.527,VALID,0.001,VALID,20.858,INVALID,360.0,VALID,0.0,
2019-06-26, 00:40:06,VALID,919.098,VALID,0.0,VALID,94.673,VALID,0.01,VALID,20.861,INVALID,360.0,VALID,0.0,
2019-06-26, 00:41:06,VALID,919.099,VALID,0.0,VALID,94.726,VALID,0.017,VALID,20.88,INVALID,360.0,VALID,0.0,
2019-06-26, 00:42:06,VALID,919.081,VALID,0.0,VALID,94.803,VALID,0.013,VALID,20.901,INVALID,360.0,VALID,0.0,
2019-06-26, 00:43:06,VALID,919.102,VALID,0.0,VALID,94.729,VALID,0.005,VALID,20.919,INVALID,360.0,VALID,0.0,
2019-06-26, 00:44:06,VALID,919.084,VALID,0.0,VALID,94.611,VALID,0.002,VALID,20.916,INVALID,360.0,VALID,0.0,
2019-06-26, 00:45:06,VALID,919.091,VALID,0.0,VALID,94.405,VALID,0.013,VALID,20.894,INVALID,360.0,VALID,0.0,
2019-06-26, 00:46:06,VALID,919.083,VALID,0.0,VALID,94.341,VALID,-0.001,VALID,20.844,INVALID,360.0,VALID,0.0,
2019-06-26, 00:47:06,VALID,919.093,VALID,0.0,VALID,94.545,VALID,0.005,VALID,20.816,INVALID,360.0,VALID,0.0,
2019-06-26, 00:48:06,VALID,919.105,VALID,0.0,VALID,94.515,VALID,-0.002,VALID,20.836,INVALID,360.0,VALID,0.0,
2019-06-26, 00:49:06,VALID,919.1,VALID,0.0,VALID,94.518,VALID,0.002,VALID,20.866,INVALID,360.0,VALID,0.0,
2019-06-26, 00:50:06,VALID,919.111,VALID,0.0,VALID,94.312,VALID,-0.021,VALID,20.907,INVALID,360.0,VALID,0.0,
2019-06-26, 00:51:06,VALID,919.098,VALID,0.0,VALID,93.989,VALID,-0.001,VALID,20.946,INVALID,360.0,VALID,0.0,
2019-06-26, 00:52:07,VALID,919.091,VALID,0.0,VALID,93.803,VALID,-0.007,VALID,20.992,INVALID,360.0,VALID,0.0,
2019-06-26, 00:53:07,VALID,919.057,VALID,0.0,VALID,93.698,VALID,-0.007,VALID,21.002,INVALID,360.0,VALID,0.0,
2019-06-26, 00:54:07,VALID,919.028,VALID,0.0,VALID,93.629,VALID,0.003,VALID,21.026,INVALID,360.0,VALID,0.0,
2019-06-26, 00:55:07,VALID,918.997,VALID,0.0,VALID,93.427,VALID,-0.004,VALID,21.051,INVALID,360.0,VALID,0.0,
2019-06-26, 00:56:07,VALID,918.968,VALID,0.0,VALID,93.573,VALID,0.001,VALID,21.046,INVALID,360.0,VALID,0.0,
2019-06-26, 00:57:07,VALID,918.939,VALID,0.0,VALID,93.594,VALID,-0.006,VALID,21.037,INVALID,360.0,VALID,0.0,
2019-06-26, 00:58:07,VALID,918.917,VALID,0.0,VALID,93.447,VALID,0.004,VALID,21.02,INVALID,360.0,VALID,0.0,
2019-06-26, 00:59:07,VALID,918.904,VALID,0.0,VALID,93.255,VALID,0.001,VALID,21.026,INVALID,360.0,VALID,0.0,
2019-06-26, 01:00:07,VALID,918.893,VALID,0.0,VALID,92.999,VALID,0.012,VALID,21.062,INVALID,360.0,VALID,0.0,
2019-06-26, 01:01:07,VALID,918.883,VALID,0.0,VALID,92.701,VALID,0.011,VALID,21.096,INVALID,360.0,VALID,0.0,
2019-06-26, 01:02:07,VALID,918.886,VALID,0.0,VALID,92.487,VALID,0.0,VALID,21.105,INVALID,360.0,VALID,0.0,
2019-06-26, 01:03:07,VALID,918.871,VALID,0.0,VALID,92.576,VALID,0.025,VALID,21.091,INVALID,360.0,VALID,0.0,
2019-06-26, 01:04:07,VALID,918.859,VALID,0.0,VALID,92.756,VALID,0.021,VALID,21.065,INVALID,360.0,VALID,0.0,
2019-06-26, 01:05:07,VALID,918.822,VALID,0.0,VALID,92.691,VALID,0.042,VALID,21.047,INVALID,360.0,VALID,0.0,
2019-06-26, 01:06:07,VALID,918.81,VALID,0.0,VALID,92.747,VALID,0.025,VALID,20.999,INVALID,360.0,VALID,0.0,
2019-06-26, 01:07:07,VALID,918.814,VALID,0.0,VALID,92.908,VALID,0.012,VALID,21.0,INVALID,360.0,VALID,0.0,
2019-06-26, 01:08:07,VALID,918.818,VALID,0.0,VALID,92.955,VALID,0.01,VALID,20.999,INVALID,360.0,VALID,0.0,
2019-06-26, 01:09:07,VALID,918.862,VALID,0.0,VALID,93.06,VALID,0.004,VALID,20.986,INVALID,360.0,VALID,0.0,
2019-06-26, 01:10:07,VALID,918.869,VALID,0.0,VALID,93.162,VALID,0.003,VALID,20.97,INVALID,360.0,VALID,0.0,
2019-06-26, 01:11:07,VALID,918.891,VALID,0.0,VALID,93.267,VALID,0.005,VALID,20.936,INVALID,360.0,VALID,0.0,
2019-06-26, 01:12:07,VALID,918.902,VALID,0.0,VALID,93.552,VALID,0.008,VALID,20.897,INVALID,360.0,VALID,0.0,
2019-06-26, 01:13:07,VALID,918.88,VALID,0.0,VALID,93.764,VALID,0.013,VALID,20.883,INVALID,360.0,VALID,0.0,
2019-06-26, 01:14:07,VALID,918.878,VALID,0.0,VALID,93.485,VALID,0.005,VALID,20.936,INVALID,360.0,VALID,0.0,
2019-06-26, 01:15:07,VALID,918.836,VALID,0.0,VALID,93.119,VALID,0.031,VALID,20.99,INVALID,360.0,VALID,0.0,
2019-06-26, 01:16:07,VALID,918.778,VALID,0.0,VALID,92.745,VALID,0.017,VALID,21.041,INVALID,360.0,VALID,0.0,
2019-06-26, 01:17:07,VALID,918.759,VALID,0.0,VALID,92.354,VALID,0.015,VALID,21.078,INVALID,360.0,VALID,0.0,
2019-06-26, 01:18:07,VALID,918.743,VALID,0.0,VALID,92.2,VALID,0.018,VALID,21.097,INVALID,360.0,VALID,0.0,
2019-06-26, 01:19:07,VALID,918.763,VALID,0.0,VALID,92.005,VALID,0.013,VALID,21.073,INVALID,360.0,VALID,0.0,
2019-06-26, 01:20:07,VALID,918.793,VALID,0.0,VALID,92.134,VALID,0.02,VALID,21.031,INVALID,360.0,VALID,0.0,
2019-06-26, 01:21:07,VALID,918.84,VALID,0.0,VALID,91.862,VALID,0.011,VALID,20.989,INVALID,360.0,VALID,0.0,
2019-06-26, 01:22:07,VALID,918.859,VALID,0.0,VALID,92.316,VALID,0.008,VALID,20.892,INVALID,360.0,VALID,0.0,
2019-06-26, 01:23:07,VALID,918.887,VALID,0.0,VALID,92.534,VALID,0.01,VALID,20.816,INVALID,360.0,VALID,0.0,
2019-06-26, 01:24:07,VALID,918.865,VALID,0.0,VALID,92.962,VALID,0.017,VALID,20.716,INVALID,360.0,VALID,0.0,
2019-06-26, 01:25:07,VALID,918.822,VALID,0.0,VALID,93.23,VALID,0.018,VALID,20.722,INVALID,360.0,VALID,0.0,
2019-06-26, 01:26:07,VALID,918.762,VALID,0.0,VALID,93.242,VALID,0.005,VALID,20.689,INVALID,360.0,VALID,0.0,
2019-06-26, 01:27:07,VALID,918.698,VALID,0.0,VALID,93.449,VALID,0.005,VALID,20.704,INVALID,360.0,VALID,0.0,
2019-06-26, 01:28:07,VALID,918.643,VALID,0.0,VALID,93.363,VALID,-0.004,VALID,20.717,INVALID,360.0,VALID,0.0,
2019-06-26, 01:29:07,VALID,918.633,VALID,0.0,VALID,93.096,VALID,-0.003,VALID,20.762,INVALID,360.0,VALID,0.0,
2019-06-26, 01:30:07,VALID,918.64,VALID,0.0,VALID,92.831,VALID,0.005,VALID,20.802,INVALID,360.0,VALID,0.0,
2019-06-26, 01:31:07,VALID,918.668,VALID,0.0,VALID,92.489,VALID,0.001,VALID,20.825,INVALID,360.0,VALID,0.0,
2019-06-26, 01:32:07,VALID,918.684,VALID,0.0,VALID,92.208,VALID,-0.007,VALID,20.794,INVALID,360.0,VALID,0.0,
2019-06-26, 01:33:07,VALID,918.684,VALID,0.0,VALID,92.125,VALID,-0.024,VALID,20.701,INVALID,360.0,VALID,0.0,
2019-06-26, 01:34:07,VALID,918.648,VALID,0.0,VALID,92.456,VALID,-0.016,VALID,20.54,INVALID,360.0,VALID,0.0,
2019-06-26, 01:35:07,VALID,918.643,VALID,0.0,VALID,93.416,VALID,0.001,VALID,20.405,INVALID,360.0,VALID,0.0,
2019-06-26, 01:36:07,VALID,918.639,VALID,0.0,VALID,93.976,VALID,-0.022,VALID,20.341,INVALID,360.0,VALID,0.0,
2019-06-26, 01:37:07,VALID,918.626,VALID,0.0,VALID,94.188,VALID,-0.013,VALID,20.316,INVALID,360.0,VALID,0.0,
2019-06-26, 01:38:07,VALID,918.609,VALID,0.0,VALID,94.131,VALID,0.002,VALID,20.302,INVALID,360.0,VALID,0.0,
2019-06-26, 01:39:07,VALID,918.597,VALID,0.0,VALID,94.307,VALID,0.001,VALID,20.322,INVALID,360.0,VALID,0.0,
2019-06-26, 01:40:07,VALID,918.57,VALID,0.0,VALID,94.251,VALID,0.012,VALID,20.343,INVALID,360.0,VALID,0.0,
2019-06-26, 01:41:07,VALID,918.545,VALID,0.0,VALID,93.805,VALID,-0.003,VALID,20.335,INVALID,360.0,VALID,0.0,
2019-06-26, 01:42:07,VALID,918.528,VALID,0.0,VALID,93.877,VALID,-0.011,VALID,20.318,INVALID,360.0,VALID,0.0,
2019-06-26, 01:43:07,VALID,918.521,VALID,0.0,VALID,93.506,VALID,-0.01,VALID,20.258,INVALID,360.0,VALID,0.0,
2019-06-26, 01:44:07,VALID,918.514,VALID,0.0,VALID,94.245,VALID,0.01,VALID,20.24,INVALID,360.0,VALID,0.0,
2019-06-26, 01:45:07,VALID,918.536,VALID,0.0,VALID,94.577,VALID,-0.006,VALID,20.221,INVALID,360.0,VALID,0.0,
2019-06-26, 01:46:07,VALID,918.56,VALID,0.0,VALID,94.882,VALID,-0.019,VALID,20.216,INVALID,360.0,VALID,0.0,
2019-06-26, 01:47:07,VALID,918.578,VALID,0.0,VALID,95.04,VALID,-0.003,VALID,20.227,INVALID,360.0,VALID,0.0,
2019-06-26, 01:48:07,VALID,918.587,VALID,0.0,VALID,94.928,VALID,0.004,VALID,20.249,INVALID,360.0,VALID,0.0,
2019-06-26, 01:49:07,VALID,918.596,VALID,0.0,VALID,94.61,VALID,-0.009,VALID,20.238,INVALID,360.0,VALID,0.0,
2019-06-26, 01:50:07,VALID,918.602,VALID,0.0,VALID,94.267,VALID,-0.007,VALID,20.2,INVALID,360.0,VALID,0.0,
2019-06-26, 01:51:07,VALID,918.592,VALID,0.0,VALID,94.956,VALID,0.0,VALID,20.207,INVALID,360.0,VALID,0.0,
2019-06-26, 01:52:07,VALID,918.573,VALID,0.0,VALID,95.018,VALID,0.002,VALID,20.203,INVALID,360.0,VALID,0.0,
2019-06-26, 01:53:07,VALID,918.564,VALID,0.0,VALID,94.819,VALID,-0.003,VALID,20.18,INVALID,360.0,VALID,0.0,
2019-06-26, 01:54:07,VALID,918.546,VALID,0.0,VALID,94.805,VALID,0.016,VALID,20.17,INVALID,360.0,VALID,0.0,
2019-06-26, 01:55:07,VALID,918.544,VALID,0.0,VALID,94.749,VALID,0.018,VALID,20.122,INVALID,360.0,VALID,0.0,
2019-06-26, 01:56:07,VALID,918.55,VALID,0.0,VALID,94.512,VALID,0.001,VALID,20.05,INVALID,360.0,VALID,0.0,
2019-06-26, 01:57:07,VALID,918.533,VALID,0.0,VALID,94.689,VALID,0.025,VALID,20.001,INVALID,360.0,VALID,0.0,
2019-06-26, 01:58:07,VALID,918.541,VALID,0.0,VALID,94.819,VALID,0.011,VALID,19.947,INVALID,360.0,VALID,0.0,
2019-06-26, 01:59:07,VALID,918.523,VALID,0.0,VALID,95.314,VALID,0.007,VALID,19.912,INVALID,360.0,VALID,0.0,
2019-06-26, 02:00:07,VALID,918.522,VALID,0.0,VALID,95.673,VALID,0.008,VALID,19.909,INVALID,360.0,VALID,0.0,
2019-06-26, 02:01:07,VALID,918.516,VALID,0.0,VALID,96.256,VALID,0.01,VALID,20.03,INVALID,360.0,VALID,0.0,
2019-06-26, 02:02:07,VALID,918.5,VALID,0.0,VALID,96.029,VALID,0.007,VALID,20.157,INVALID,360.0,VALID,0.0,
2019-06-26, 02:03:07,VALID,918.473,VALID,0.0,VALID,95.43,VALID,0.011,VALID,20.252,INVALID,360.0,VALID,0.0,
2019-06-26, 02:04:07,VALID,918.441,VALID,0.0,VALID,94.913,VALID,0.009,VALID,20.275,INVALID,360.0,VALID,0.0,
2019-06-26, 02:05:07,VALID,918.373,VALID,0.0,VALID,94.776,VALID,0.006,VALID,20.222,INVALID,360.0,VALID,0.0,
2019-06-26, 02:06:07,VALID,918.322,VALID,0.0,VALID,94.889,VALID,0.022,VALID,20.169,INVALID,360.0,VALID,0.0,
2019-06-26, 02:07:07,VALID,918.288,VALID,0.0,VALID,95.444,VALID,0.004,VALID,20.188,INVALID,360.0,VALID,0.0,
2019-06-26, 02:08:07,VALID,918.249,VALID,0.0,VALID,95.234,VALID,0.017,VALID,20.198,INVALID,360.0,VALID,0.0,
2019-06-26, 02:09:07,VALID,918.225,VALID,0.0,VALID,95.134,VALID,0.002,VALID,20.193,INVALID,360.0,VALID,0.0,
2019-06-26, 02:10:07,VALID,918.212,VALID,0.0,VALID,94.922,VALID,0.006,VALID,20.146,INVALID,360.0,VALID,0.0,
2019-06-26, 02:11:07,VALID,918.21,VALID,0.0,VALID,93.731,VALID,-0.001,VALID,19.988,INVALID,360.0,VALID,0.0,
2019-06-26, 02:12:07,VALID,918.172,VALID,0.0,VALID,94.255,VALID,0.011,VALID,19.9,INVALID,360.0,VALID,0.0,
2019-06-26, 02:13:07,VALID,918.192,VALID,0.0,VALID,94.968,VALID,0.006,VALID,19.858,INVALID,360.0,VALID,0.0,
2019-06-26, 02:14:07,VALID,918.169,VALID,0.0,VALID,96.009,VALID,0.028,VALID,19.883,INVALID,360.0,VALID,0.0,
2019-06-26, 02:15:07,VALID,918.19,VALID,0.0,VALID,96.859,VALID,-0.011,VALID,19.903,INVALID,360.0,VALID,0.0,
2019-06-26, 02:16:07,VALID,918.172,VALID,0.0,VALID,96.977,VALID,0.019,VALID,19.88,INVALID,360.0,VALID,0.0,
2019-06-26, 02:17:07,VALID,918.162,VALID,0.0,VALID,97.04,VALID,0.016,VALID,19.829,INVALID,360.0,VALID,0.0,
2019-06-26, 02:18:07,VALID,918.146,VALID,0.0,VALID,97.254,VALID,0.009,VALID,19.814,INVALID,360.0,VALID,0.0,
2019-06-26, 02:19:07,VALID,918.133,VALID,0.0,VALID,97.489,VALID,-0.012,VALID,19.82,INVALID,360.0,VALID,0.0,
2019-06-26, 02:20:07,VALID,918.121,VALID,0.0,VALID,97.811,VALID,0.002,VALID,19.83,INVALID,360.0,VALID,0.0,
2019-06-26, 02:21:07,VALID,918.148,VALID,0.0,VALID,97.956,VALID,0.005,VALID,19.792,INVALID,360.0,VALID,0.0,
2019-06-26, 02:22:07,VALID,918.176,VALID,0.0,VALID,97.988,VALID,0.002,VALID,19.746,INVALID,360.0,VALID,0.0,
2019-06-26, 02:23:07,VALID,918.17,VALID,0.0,VALID,97.807,VALID,0.008,VALID,19.696,INVALID,360.0,VALID,0.0,
2019-06-26, 02:24:07,VALID,918.233,VALID,0.0,VALID,97.916,VALID,0.031,VALID,19.742,INVALID,360.0,VALID,0.0,
2019-06-26, 02:25:07,VALID,918.267,VALID,0.0,VALID,97.94,VALID,0.012,VALID,19.754,INVALID,360.0,VALID,0.0,
2019-06-26, 02:26:07,VALID,918.298,VALID,0.0,VALID,98.112,VALID,0.005,VALID,19.805,INVALID,360.0,VALID,0.0,
2019-06-26, 02:27:07,VALID,918.311,VALID,0.0,VALID,98.104,VALID,0.024,VALID,19.819,INVALID,360.0,VALID,0.0,
2019-06-26, 02:28:07,VALID,918.313,VALID,0.0,VALID,98.016,VALID,0.025,VALID,19.823,INVALID,360.0,VALID,0.0,
2019-06-26, 02:29:07,VALID,918.281,VALID,0.0,VALID,98.027,VALID,0.017,VALID,19.865,INVALID,360.0,VALID,0.0,
2019-06-26, 02:30:07,VALID,918.219,VALID,0.0,VALID,98.109,VALID,0.009,VALID,19.908,INVALID,360.0,VALID,0.0,
2019-06-26, 02:31:07,VALID,918.151,VALID,0.0,VALID,97.99,VALID,0.005,VALID,19.901,INVALID,360.0,VALID,0.0,
2019-06-26, 02:32:07,VALID,918.1,VALID,0.0,VALID,97.895,VALID,0.01,VALID,19.916,INVALID,360.0,VALID,0.0,
2019-06-26, 02:33:07,VALID,918.043,VALID,0.0,VALID,97.942,VALID,0.012,VALID,19.934,INVALID,360.0,VALID,0.0,
2019-06-26, 02:34:07,VALID,918.054,VALID,0.0,VALID,97.99,VALID,-0.014,VALID,19.948,INVALID,360.0,VALID,0.0,
2019-06-26, 02:35:07,VALID,918.097,VALID,0.0,VALID,98.086,VALID,0.001,VALID,19.951,INVALID,360.0,VALID,0.0,
2019-06-26, 02:36:07,VALID,918.115,VALID,0.0,VALID,97.984,VALID,0.013,VALID,19.929,INVALID,360.0,VALID,0.0,
2019-06-26, 02:37:07,VALID,918.144,VALID,0.0,VALID,97.979,VALID,0.006,VALID,19.943,INVALID,360.0,VALID,0.0,
2019-06-26, 02:38:07,VALID,918.14,VALID,0.0,VALID,97.943,VALID,-0.017,VALID,19.945,INVALID,360.0,VALID,0.0,
2019-06-26, 02:39:07,VALID,918.11,VALID,0.0,VALID,97.942,VALID,0.003,VALID,19.957,INVALID,360.0,VALID,0.0,
2019-06-26, 02:40:07,VALID,918.093,VALID,0.0,VALID,97.893,VALID,-0.001,VALID,19.944,INVALID,360.0,VALID,0.0,
2019-06-26, 02:41:07,VALID,918.041,VALID,0.0,VALID,97.818,VALID,0.007,VALID,19.949,INVALID,360.0,VALID,0.0,
2019-06-26, 02:42:07,VALID,918.009,VALID,0.0,VALID,97.736,VALID,-0.012,VALID,19.957,INVALID,360.0,VALID,0.0,
2019-06-26, 02:43:07,VALID,917.984,VALID,0.0,VALID,97.662,VALID,-0.011,VALID,19.969,INVALID,360.0,VALID,0.0,
2019-06-26, 02:44:07,VALID,917.98,VALID,0.0,VALID,97.605,VALID,-0.013,VALID,20.001,INVALID,360.0,VALID,0.0,
2019-06-26, 02:45:07,VALID,917.965,VALID,0.0,VALID,97.417,VALID,-0.006,VALID,20.019,INVALID,360.0,VALID,0.0,
2019-06-26, 02:46:07,VALID,917.984,VALID,0.0,VALID,97.386,VALID,0.01,VALID,20.076,INVALID,360.0,VALID,0.0,
2019-06-26, 02:47:07,VALID,917.992,VALID,0.0,VALID,97.295,VALID,0.007,VALID,20.109,INVALID,360.0,VALID,0.0,
2019-06-26, 02:48:07,VALID,917.995,VALID,0.0,VALID,97.004,VALID,-0.001,VALID,20.105,INVALID,360.0,VALID,0.0,
2019-06-26, 02:49:07,VALID,917.997,VALID,0.0,VALID,96.66,VALID,0.019,VALID,20.098,INVALID,360.0,VALID,0.0,
2019-06-26, 02:50:07,VALID,918.006,VALID,0.0,VALID,96.615,VALID,0.015,VALID,20.122,INVALID,360.0,VALID,0.0,
2019-06-26, 02:51:07,VALID,917.993,VALID,0.0,VALID,96.505,VALID,0.009,VALID,20.143,INVALID,360.0,VALID,0.0,
2019-06-26, 02:52:07,VALID,917.99,VALID,0.0,VALID,96.308,VALID,0.003,VALID,20.147,INVALID,360.0,VALID,0.0,
2019-06-26, 02:53:07,VALID,917.991,VALID,0.0,VALID,96.204,VALID,0.015,VALID,20.147,INVALID,360.0,VALID,0.0,
2019-06-26, 02:54:07,VALID,917.971,VALID,0.0,VALID,96.268,VALID,0.006,VALID,20.174,INVALID,360.0,VALID,0.0,
2019-06-26, 02:55:07,VALID,917.966,VALID,0.0,VALID,96.138,VALID,0.013,VALID,20.177,INVALID,360.0,VALID,0.0,
2019-06-26, 02:56:07,VALID,917.962,VALID,0.0,VALID,96.073,VALID,0.008,VALID,20.188,INVALID,360.0,VALID,0.0,
2019-06-26, 02:57:07,VALID,917.934,VALID,0.0,VALID,95.923,VALID,0.011,VALID,20.169,INVALID,360.0,VALID,0.0,
2019-06-26, 02:58:07,VALID,917.916,VALID,0.0,VALID,96.04,VALID,-0.002,VALID,20.172,INVALID,360.0,VALID,0.0,
2019-06-26, 02:59:07,VALID,917.9,VALID,0.0,VALID,95.964,VALID,0.002,VALID,20.156,INVALID,360.0,VALID,0.0,
2019-06-26, 03:00:06,VALID,917.944,VALID,0.0,VALID,96.033,VALID,-0.005,VALID,20.14,INVALID,360.0,VALID,0.0,
2019-06-26, 03:01:06,VALID,917.959,VALID,0.0,VALID,96.135,VALID,-0.002,VALID,20.114,INVALID,360.0,VALID,0.0,
2019-06-26, 03:02:06,VALID,917.976,VALID,0.0,VALID,96.14,VALID,0.007,VALID,20.073,INVALID,360.0,VALID,0.0,
2019-06-26, 03:03:06,VALID,917.969,VALID,0.0,VALID,96.319,VALID,0.019,VALID,20.033,INVALID,360.0,VALID,0.0,
2019-06-26, 03:04:06,VALID,917.986,VALID,0.0,VALID,96.477,VALID,0.017,VALID,19.996,INVALID,360.0,VALID,0.0,
2019-06-26, 03:05:06,VALID,917.98,VALID,0.0,VALID,96.456,VALID,0.011,VALID,19.955,INVALID,360.0,VALID,0.0,
2019-06-26, 03:06:06,VALID,917.95,VALID,0.0,VALID,96.475,VALID,-0.0,VALID,19.927,INVALID,360.0,VALID,0.0,
2019-06-26, 03:07:06,VALID,917.962,VALID,0.0,VALID,96.558,VALID,0.004,VALID,19.911,INVALID,360.0,VALID,0.0,
2019-06-26, 03:08:06,VALID,917.953,VALID,0.0,VALID,96.642,VALID,0.028,VALID,19.904,INVALID,360.0,VALID,0.0,
2019-06-26, 03:09:06,VALID,917.943,VALID,0.0,VALID,96.672,VALID,0.002,VALID,19.915,INVALID,360.0,VALID,0.0,
2019-06-26, 03:10:06,VALID,917.939,VALID,0.0,VALID,96.547,VALID,-0.004,VALID,19.923,INVALID,360.0,VALID,0.0,
2019-06-26, 03:11:06,VALID,917.935,VALID,0.0,VALID,96.456,VALID,0.005,VALID,19.933,INVALID,360.0,VALID,0.0,
2019-06-26, 03:12:06,VALID,917.908,VALID,0.0,VALID,96.443,VALID,-0.005,VALID,19.95,INVALID,360.0,VALID,0.0,
2019-06-26, 03:13:06,VALID,917.873,VALID,0.0,VALID,96.869,VALID,0.009,VALID,19.971,INVALID,360.0,VALID,0.0,
2019-06-26, 03:14:06,VALID,917.84,VALID,0.0,VALID,97.231,VALID,0.017,VALID,19.931,INVALID,360.0,VALID,0.0,
2019-06-26, 03:15:06,VALID,917.829,VALID,0.0,VALID,97.36,VALID,0.01,VALID,19.872,INVALID,360.0,VALID,0.0,
2019-06-26, 03:16:06,VALID,917.787,VALID,0.0,VALID,97.415,VALID,0.012,VALID,19.836,INVALID,360.0,VALID,0.0,
2019-06-26, 03:17:06,VALID,917.772,VALID,0.0,VALID,97.36,VALID,0.011,VALID,19.805,INVALID,360.0,VALID,0.0,
2019-06-26, 03:18:06,VALID,917.751,VALID,0.0,VALID,97.334,VALID,0.013,VALID,19.815,INVALID,360.0,VALID,0.0,
2019-06-26, 03:19:06,VALID,917.781,VALID,0.0,VALID,97.448,VALID,-0.0,VALID,19.84,INVALID,360.0,VALID,0.0,
2019-06-26, 03:20:06,VALID,917.786,VALID,0.0,VALID,97.464,VALID,0.01,VALID,19.846,INVALID,360.0,VALID,0.0,
2019-06-26, 03:21:06,VALID,917.81,VALID,0.0,VALID,97.531,VALID,0.02,VALID,19.842,INVALID,360.0,VALID,0.0,
2019-06-26, 03:22:06,VALID,917.815,VALID,0.0,VALID,97.524,VALID,0.012,VALID,19.825,INVALID,360.0,VALID,0.0,
2019-06-26, 03:23:06,VALID,917.838,VALID,0.0,VALID,97.33,VALID,0.012,VALID,19.813,INVALID,360.0,VALID,0.0,
2019-06-26, 03:24:06,VALID,917.853,VALID,0.0,VALID,97.142,VALID,0.011,VALID,19.811,INVALID,360.0,VALID,0.0,
2019-06-26, 03:25:06,VALID,917.845,VALID,0.0,VALID,97.054,VALID,0.017,VALID,19.815,INVALID,360.0,VALID,0.0,
2019-06-26, 03:26:06,VALID,917.868,VALID,0.0,VALID,97.039,VALID,0.026,VALID,19.817,INVALID,360.0,VALID,0.0,
2019-06-26, 03:27:06,VALID,917.858,VALID,0.0,VALID,96.897,VALID,-0.001,VALID,19.835,INVALID,360.0,VALID,0.0,
2019-06-26, 03:28:06,VALID,917.877,VALID,0.0,VALID,96.675,VALID,0.015,VALID,19.847,INVALID,360.0,VALID,0.0,
2019-06-26, 03:29:06,VALID,917.878,VALID,0.0,VALID,96.465,VALID,0.021,VALID,19.859,INVALID,360.0,VALID,0.0,
2019-06-26, 03:30:06,VALID,917.914,VALID,0.0,VALID,96.284,VALID,0.01,VALID,19.88,INVALID,360.0,VALID,0.0,
2019-06-26, 03:31:06,VALID,917.928,VALID,0.0,VALID,96.015,VALID,0.01,VALID,19.904,INVALID,360.0,VALID,0.0,
2019-06-26, 03:32:06,VALID,917.935,VALID,0.0,VALID,95.831,VALID,0.003,VALID,19.91,INVALID,360.0,VALID,0.0,
2019-06-26, 03:33:06,VALID,917.935,VALID,0.0,VALID,95.764,VALID,-0.013,VALID,19.908,INVALID,360.0,VALID,0.0,
2019-06-26, 03:34:06,VALID,917.951,VALID,0.0,VALID,95.812,VALID,-0.011,VALID,19.91,INVALID,360.0,VALID,0.0,
2019-06-26, 03:35:06,VALID,917.981,VALID,0.0,VALID,95.821,VALID,-0.022,VALID,19.912,VALID,64.0,VALID,0.0,
2019-06-26, 03:36:06,VALID,917.941,VALID,0.0,VALID,95.827,VALID,-0.027,VALID,19.926,INVALID,360.0,VALID,0.0,
2019-06-26, 03:37:06,VALID,917.956,VALID,0.0,VALID,95.711,VALID,-0.033,VALID,19.929,INVALID,360.0,VALID,0.0,
2019-06-26, 03:38:06,VALID,917.944,VALID,0.0,VALID,95.699,VALID,-0.014,VALID,19.929,INVALID,360.0,VALID,0.0,